Data supplied by UK-AIR on 5/4/2008
All Data GMT hour ending 
Status: R =Ratified P=Provisional,P*=As supplied
,,Camden Kerbside,,,,,,,,,,,,,,,,,,,,,,,
Date,time,"PM10 particulate matter (Hourly measured)",status,unit,"Nitric oxide",status,unit,"Nitrogen dioxide",status,unit,"Nitrogen oxides as nitrogen dioxide",status,unit
 
01-01-1998,01:00,27,R,ugm-3 (GRAV EQ),81,R,ugm-3,73,R,ugm-3,197,R,ugm-3
01-01-1998,02:00,26,R,ugm-3 (GRAV EQ),93,R,ugm-3,71,R,ugm-3,212,R,ugm-3
01-01-1998,03:00,21,R,ugm-3 (GRAV EQ),109,R,ugm-3,71,R,ugm-3,237,R,ugm-3
01-01-1998,04:00,23,R,ugm-3 (GRAV EQ),113,R,ugm-3,69,R,ugm-3,241,R,ugm-3
01-01-1998,05:00,20,R,ugm-3 (GRAV EQ),93,R,ugm-3,67,R,ugm-3,208,R,ugm-3
01-01-1998,06:00,16,R,ugm-3 (GRAV EQ),49,R,ugm-3,61,R,ugm-3,136,R,ugm-3
01-01-1998,07:00,14,R,ugm-3 (GRAV EQ),54,R,ugm-3,67,R,ugm-3,149,R,ugm-3
01-01-1998,08:00,16,R,ugm-3 (GRAV EQ),60,R,ugm-3,74,R,ugm-3,166,R,ugm-3
01-01-1998,09:00,16,R,ugm-3 (GRAV EQ),54,R,ugm-3,73,R,ugm-3,155,R,ugm-3
01-01-1998,10:00,16,R,ugm-3 (GRAV EQ),59,R,ugm-3,65,R,ugm-3,155,R,ugm-3
01-01-1998,11:00,5,R,ugm-3 (GRAV EQ),39,R,ugm-3,48,R,ugm-3,107,R,ugm-3
01-01-1998,12:00,4,R,ugm-3 (GRAV EQ),40,R,ugm-3,46,R,ugm-3,107,R,ugm-3
01-01-1998,13:00,5,R,ugm-3 (GRAV EQ),51,R,ugm-3,42,R,ugm-3,120,R,ugm-3
01-01-1998,14:00,21,R,ugm-3 (GRAV EQ),53,R,ugm-3,50,R,ugm-3,130,R,ugm-3
01-01-1998,15:00,22,R,ugm-3 (GRAV EQ),43,R,ugm-3,42,R,ugm-3,107,R,ugm-3
01-01-1998,16:00,22,R,ugm-3 (GRAV EQ),43,R,ugm-3,44,R,ugm-3,109,R,ugm-3
01-01-1998,17:00,23,R,ugm-3 (GRAV EQ),40,R,ugm-3,40,R,ugm-3,101,R,ugm-3
01-01-1998,18:00,18,R,ugm-3 (GRAV EQ),40,R,ugm-3,48,R,ugm-3,109,R,ugm-3
01-01-1998,19:00,13,R,ugm-3 (GRAV EQ),39,R,ugm-3,46,R,ugm-3,105,R,ugm-3
01-01-1998,20:00,14,R,ugm-3 (GRAV EQ),25,R,ugm-3,36,R,ugm-3,74,R,ugm-3
01-01-1998,21:00,16,R,ugm-3 (GRAV EQ),24,R,ugm-3,29,R,ugm-3,65,R,ugm-3
01-01-1998,22:00,9,R,ugm-3 (GRAV EQ),25,R,ugm-3,38,R,ugm-3,76,R,ugm-3
01-01-1998,23:00,17,R,ugm-3 (GRAV EQ),30,R,ugm-3,52,R,ugm-3,97,R,ugm-3
01-01-1998,24:00,23,R,ugm-3 (GRAV EQ),24,R,ugm-3,46,R,ugm-3,82,R,ugm-3
02-01-1998,01:00,34,R,ugm-3 (GRAV EQ),16,R,ugm-3,42,R,ugm-3,67,R,ugm-3
02-01-1998,02:00,40,R,ugm-3 (GRAV EQ),10,R,ugm-3,29,R,ugm-3,44,R,ugm-3
02-01-1998,03:00,42,R,ugm-3 (GRAV EQ),4,R,ugm-3,19,R,ugm-3,25,R,ugm-3
02-01-1998,04:00,40,R,ugm-3 (GRAV EQ),5,R,ugm-3,19,R,ugm-3,27,R,ugm-3
02-01-1998,05:00,39,R,ugm-3 (GRAV EQ),4,R,ugm-3,19,R,ugm-3,25,R,ugm-3
02-01-1998,06:00,39,R,ugm-3 (GRAV EQ),13,R,ugm-3,31,R,ugm-3,50,R,ugm-3
02-01-1998,07:00,25,R,ugm-3 (GRAV EQ),25,R,ugm-3,42,R,ugm-3,80,R,ugm-3
02-01-1998,08:00,18,R,ugm-3 (GRAV EQ),54,R,ugm-3,53,R,ugm-3,136,R,ugm-3
02-01-1998,09:00,26,R,ugm-3 (GRAV EQ),40,R,ugm-3,48,R,ugm-3,109,R,ugm-3
02-01-1998,10:00,27,R,ugm-3 (GRAV EQ),50,R,ugm-3,52,R,ugm-3,128,R,ugm-3
02-01-1998,11:00,26,R,ugm-3 (GRAV EQ),65,R,ugm-3,55,R,ugm-3,155,R,ugm-3
02-01-1998,12:00,25,R,ugm-3 (GRAV EQ),61,R,ugm-3,59,R,ugm-3,153,R,ugm-3
02-01-1998,13:00,20,R,ugm-3 (GRAV EQ),63,R,ugm-3,50,R,ugm-3,145,R,ugm-3
02-01-1998,14:00,26,R,ugm-3 (GRAV EQ),79,R,ugm-3,59,R,ugm-3,180,R,ugm-3
02-01-1998,15:00,26,R,ugm-3 (GRAV EQ),30,R,ugm-3,46,R,ugm-3,92,R,ugm-3
02-01-1998,16:00,22,R,ugm-3 (GRAV EQ),25,R,ugm-3,44,R,ugm-3,82,R,ugm-3
02-01-1998,17:00,23,R,ugm-3 (GRAV EQ),29,R,ugm-3,48,R,ugm-3,92,R,ugm-3
02-01-1998,18:00,31,R,ugm-3 (GRAV EQ),38,R,ugm-3,59,R,ugm-3,117,R,ugm-3
02-01-1998,19:00,35,R,ugm-3 (GRAV EQ),54,R,ugm-3,63,R,ugm-3,145,R,ugm-3
02-01-1998,20:00,38,R,ugm-3 (GRAV EQ),48,R,ugm-3,67,R,ugm-3,139,R,ugm-3
02-01-1998,21:00,42,R,ugm-3 (GRAV EQ),45,R,ugm-3,67,R,ugm-3,136,R,ugm-3
02-01-1998,22:00,43,R,ugm-3 (GRAV EQ),34,R,ugm-3,57,R,ugm-3,109,R,ugm-3
02-01-1998,23:00,39,R,ugm-3 (GRAV EQ),28,R,ugm-3,46,R,ugm-3,88,R,ugm-3
02-01-1998,24:00,39,R,ugm-3 (GRAV EQ),31,R,ugm-3,46,R,ugm-3,94,R,ugm-3
03-01-1998,01:00,40,R,ugm-3 (GRAV EQ),36,R,ugm-3,46,R,ugm-3,101,R,ugm-3
03-01-1998,02:00,35,R,ugm-3 (GRAV EQ),20,R,ugm-3,38,R,ugm-3,69,R,ugm-3
03-01-1998,03:00,33,R,ugm-3 (GRAV EQ),15,R,ugm-3,31,R,ugm-3,53,R,ugm-3
03-01-1998,04:00,27,R,ugm-3 (GRAV EQ),6,R,ugm-3,19,R,ugm-3,29,R,ugm-3
03-01-1998,05:00,16,R,ugm-3 (GRAV EQ),4,R,ugm-3,15,R,ugm-3,21,R,ugm-3
03-01-1998,06:00,10,R,ugm-3 (GRAV EQ),5,R,ugm-3,13,R,ugm-3,21,R,ugm-3
03-01-1998,07:00,5,R,ugm-3 (GRAV EQ),9,R,ugm-3,21,R,ugm-3,34,R,ugm-3
03-01-1998,08:00,5,R,ugm-3 (GRAV EQ),14,R,ugm-3,25,R,ugm-3,46,R,ugm-3
03-01-1998,09:00,9,R,ugm-3 (GRAV EQ),19,R,ugm-3,27,R,ugm-3,55,R,ugm-3
03-01-1998,10:00,8,R,ugm-3 (GRAV EQ),33,R,ugm-3,42,R,ugm-3,92,R,ugm-3
03-01-1998,11:00,12,R,ugm-3 (GRAV EQ),23,R,ugm-3,36,R,ugm-3,71,R,ugm-3
03-01-1998,12:00,9,R,ugm-3 (GRAV EQ),14,R,ugm-3,27,R,ugm-3,48,R,ugm-3
03-01-1998,13:00,14,R,ugm-3 (GRAV EQ),15,R,ugm-3,31,R,ugm-3,53,R,ugm-3
03-01-1998,14:00,18,R,ugm-3 (GRAV EQ),16,R,ugm-3,27,R,ugm-3,52,R,ugm-3
03-01-1998,15:00,27,R,ugm-3 (GRAV EQ),15,R,ugm-3,32,R,ugm-3,55,R,ugm-3
03-01-1998,16:00,25,R,ugm-3 (GRAV EQ),26,R,ugm-3,46,R,ugm-3,86,R,ugm-3
03-01-1998,17:00,23,R,ugm-3 (GRAV EQ),25,R,ugm-3,42,R,ugm-3,80,R,ugm-3
03-01-1998,18:00,22,R,ugm-3 (GRAV EQ),15,R,ugm-3,34,R,ugm-3,57,R,ugm-3
03-01-1998,19:00,33,R,ugm-3 (GRAV EQ),21,R,ugm-3,42,R,ugm-3,74,R,ugm-3
03-01-1998,20:00,33,R,ugm-3 (GRAV EQ),33,R,ugm-3,52,R,ugm-3,101,R,ugm-3
03-01-1998,21:00,30,R,ugm-3 (GRAV EQ),19,R,ugm-3,40,R,ugm-3,69,R,ugm-3
03-01-1998,22:00,27,R,ugm-3 (GRAV EQ),23,R,ugm-3,42,R,ugm-3,76,R,ugm-3
03-01-1998,23:00,26,R,ugm-3 (GRAV EQ),29,R,ugm-3,46,R,ugm-3,90,R,ugm-3
03-01-1998,24:00,30,R,ugm-3 (GRAV EQ),50,R,ugm-3,57,R,ugm-3,134,R,ugm-3
04-01-1998,01:00,17,R,ugm-3 (GRAV EQ),10,R,ugm-3,36,R,ugm-3,52,R,ugm-3
04-01-1998,02:00,13,R,ugm-3 (GRAV EQ),11,R,ugm-3,31,R,ugm-3,48,R,ugm-3
04-01-1998,03:00,12,R,ugm-3 (GRAV EQ),4,R,ugm-3,19,R,ugm-3,25,R,ugm-3
04-01-1998,04:00,13,R,ugm-3 (GRAV EQ),9,R,ugm-3,27,R,ugm-3,40,R,ugm-3
04-01-1998,05:00,14,R,ugm-3 (GRAV EQ),14,R,ugm-3,32,R,ugm-3,53,R,ugm-3
04-01-1998,06:00,22,R,ugm-3 (GRAV EQ),11,R,ugm-3,32,R,ugm-3,50,R,ugm-3
04-01-1998,07:00,25,R,ugm-3 (GRAV EQ),15,R,ugm-3,38,R,ugm-3,61,R,ugm-3
04-01-1998,08:00,30,R,ugm-3 (GRAV EQ),44,R,ugm-3,57,R,ugm-3,124,R,ugm-3
04-01-1998,09:00,33,R,ugm-3 (GRAV EQ),19,R,ugm-3,36,R,ugm-3,65,R,ugm-3
04-01-1998,10:00,26,R,ugm-3 (GRAV EQ),20,R,ugm-3,32,R,ugm-3,63,R,ugm-3
04-01-1998,11:00,17,R,ugm-3 (GRAV EQ),33,R,ugm-3,38,R,ugm-3,88,R,ugm-3
04-01-1998,12:00,17,R,ugm-3 (GRAV EQ),65,R,ugm-3,57,R,ugm-3,157,R,ugm-3
04-01-1998,13:00,26,R,ugm-3 (GRAV EQ),49,R,ugm-3,42,R,ugm-3,117,R,ugm-3
04-01-1998,14:00,26,R,ugm-3 (GRAV EQ),50,R,ugm-3,42,R,ugm-3,118,R,ugm-3
04-01-1998,15:00,31,R,ugm-3 (GRAV EQ),36,R,ugm-3,32,R,ugm-3,88,R,ugm-3
04-01-1998,16:00,29,R,ugm-3 (GRAV EQ),41,R,ugm-3,34,R,ugm-3,97,R,ugm-3
04-01-1998,17:00,20,R,ugm-3 (GRAV EQ),24,R,ugm-3,29,R,ugm-3,65,R,ugm-3
04-01-1998,18:00,29,R,ugm-3 (GRAV EQ),15,R,ugm-3,25,R,ugm-3,48,R,ugm-3
04-01-1998,19:00,29,R,ugm-3 (GRAV EQ),10,R,ugm-3,25,R,ugm-3,40,R,ugm-3
04-01-1998,20:00,29,R,ugm-3 (GRAV EQ),9,R,ugm-3,25,R,ugm-3,38,R,ugm-3
04-01-1998,21:00,23,R,ugm-3 (GRAV EQ),10,R,ugm-3,25,R,ugm-3,40,R,ugm-3
04-01-1998,22:00,23,R,ugm-3 (GRAV EQ),9,R,ugm-3,23,R,ugm-3,36,R,ugm-3
04-01-1998,23:00,43,R,ugm-3 (GRAV EQ),9,R,ugm-3,25,R,ugm-3,38,R,ugm-3
04-01-1998,24:00,23,R,ugm-3 (GRAV EQ),9,R,ugm-3,27,R,ugm-3,40,R,ugm-3
05-01-1998,01:00,13,R,ugm-3 (GRAV EQ),3,R,ugm-3,19,R,ugm-3,23,R,ugm-3
05-01-1998,02:00,13,R,ugm-3 (GRAV EQ),0,R,ugm-3,19,R,ugm-3,19,R,ugm-3
05-01-1998,03:00,14,R,ugm-3 (GRAV EQ),,,,,,,,,
05-01-1998,04:00,14,R,ugm-3 (GRAV EQ),0,R,ugm-3,13,R,ugm-3,13,R,ugm-3
05-01-1998,05:00,12,R,ugm-3 (GRAV EQ),1,R,ugm-3,17,R,ugm-3,19,R,ugm-3
05-01-1998,06:00,14,R,ugm-3 (GRAV EQ),13,R,ugm-3,36,R,ugm-3,55,R,ugm-3
05-01-1998,07:00,26,R,ugm-3 (GRAV EQ),69,R,ugm-3,65,R,ugm-3,170,R,ugm-3
05-01-1998,08:00,39,R,ugm-3 (GRAV EQ),123,R,ugm-3,74,R,ugm-3,262,R,ugm-3
05-01-1998,09:00,29,R,ugm-3 (GRAV EQ),150,R,ugm-3,76,R,ugm-3,306,R,ugm-3
05-01-1998,10:00,31,R,ugm-3 (GRAV EQ),186,R,ugm-3,80,R,ugm-3,365,R,ugm-3
05-01-1998,11:00,26,R,ugm-3 (GRAV EQ),166,R,ugm-3,82,R,ugm-3,336,R,ugm-3
05-01-1998,12:00,35,R,ugm-3 (GRAV EQ),219,R,ugm-3,74,R,ugm-3,409,R,ugm-3
05-01-1998,13:00,16,R,ugm-3 (GRAV EQ),85,R,ugm-3,61,R,ugm-3,191,R,ugm-3
05-01-1998,14:00,14,R,ugm-3 (GRAV EQ),46,R,ugm-3,55,R,ugm-3,126,R,ugm-3
05-01-1998,15:00,27,R,ugm-3 (GRAV EQ),60,R,ugm-3,65,R,ugm-3,157,R,ugm-3
05-01-1998,16:00,25,R,ugm-3 (GRAV EQ),49,R,ugm-3,57,R,ugm-3,132,R,ugm-3
05-01-1998,17:00,23,R,ugm-3 (GRAV EQ),43,R,ugm-3,61,R,ugm-3,126,R,ugm-3
05-01-1998,18:00,20,R,ugm-3 (GRAV EQ),33,R,ugm-3,59,R,ugm-3,109,R,ugm-3
05-01-1998,19:00,21,R,ugm-3 (GRAV EQ),44,R,ugm-3,65,R,ugm-3,132,R,ugm-3
05-01-1998,20:00,31,R,ugm-3 (GRAV EQ),140,R,ugm-3,67,R,ugm-3,281,R,ugm-3
05-01-1998,21:00,31,R,ugm-3 (GRAV EQ),53,R,ugm-3,63,R,ugm-3,143,R,ugm-3
05-01-1998,22:00,38,R,ugm-3 (GRAV EQ),41,R,ugm-3,65,R,ugm-3,128,R,ugm-3
05-01-1998,23:00,39,R,ugm-3 (GRAV EQ),44,R,ugm-3,63,R,ugm-3,130,R,ugm-3
05-01-1998,24:00,35,R,ugm-3 (GRAV EQ),48,R,ugm-3,57,R,ugm-3,130,R,ugm-3
06-01-1998,01:00,26,R,ugm-3 (GRAV EQ),13,R,ugm-3,48,R,ugm-3,67,R,ugm-3
06-01-1998,02:00,20,R,ugm-3 (GRAV EQ),10,R,ugm-3,46,R,ugm-3,61,R,ugm-3
06-01-1998,03:00,20,R,ugm-3 (GRAV EQ),8,R,ugm-3,42,R,ugm-3,53,R,ugm-3
06-01-1998,04:00,22,R,ugm-3 (GRAV EQ),9,R,ugm-3,50,R,ugm-3,63,R,ugm-3
06-01-1998,05:00,23,R,ugm-3 (GRAV EQ),19,R,ugm-3,50,R,ugm-3,78,R,ugm-3
06-01-1998,06:00,23,R,ugm-3 (GRAV EQ),34,R,ugm-3,55,R,ugm-3,107,R,ugm-3
06-01-1998,07:00,27,R,ugm-3 (GRAV EQ),95,R,ugm-3,61,R,ugm-3,206,R,ugm-3
06-01-1998,08:00,52,R,ugm-3 (GRAV EQ),386,R,ugm-3,76,R,ugm-3,667,R,ugm-3
06-01-1998,09:00,86,R,ugm-3 (GRAV EQ),723,R,ugm-3,84,R,ugm-3,1188,R,ugm-3
06-01-1998,10:00,83,R,ugm-3 (GRAV EQ),566,R,ugm-3,76,R,ugm-3,942,R,ugm-3
06-01-1998,11:00,64,R,ugm-3 (GRAV EQ),424,R,ugm-3,86,R,ugm-3,733,R,ugm-3
06-01-1998,12:00,39,R,ugm-3 (GRAV EQ),311,R,ugm-3,74,R,ugm-3,550,R,ugm-3
06-01-1998,13:00,40,R,ugm-3 (GRAV EQ),201,R,ugm-3,59,R,ugm-3,367,R,ugm-3
06-01-1998,14:00,46,R,ugm-3 (GRAV EQ),188,R,ugm-3,59,R,ugm-3,346,R,ugm-3
06-01-1998,15:00,34,R,ugm-3 (GRAV EQ),150,R,ugm-3,57,R,ugm-3,287,R,ugm-3
06-01-1998,16:00,34,R,ugm-3 (GRAV EQ),190,R,ugm-3,55,R,ugm-3,346,R,ugm-3
06-01-1998,17:00,48,R,ugm-3 (GRAV EQ),238,R,ugm-3,55,R,ugm-3,418,R,ugm-3
06-01-1998,18:00,49,R,ugm-3 (GRAV EQ),243,R,ugm-3,50,R,ugm-3,420,R,ugm-3
06-01-1998,19:00,46,R,ugm-3 (GRAV EQ),185,R,ugm-3,50,R,ugm-3,332,R,ugm-3
06-01-1998,20:00,31,R,ugm-3 (GRAV EQ),109,R,ugm-3,46,R,ugm-3,212,R,ugm-3
06-01-1998,21:00,33,R,ugm-3 (GRAV EQ),75,R,ugm-3,38,R,ugm-3,153,R,ugm-3
06-01-1998,22:00,33,R,ugm-3 (GRAV EQ),60,R,ugm-3,38,R,ugm-3,130,R,ugm-3
06-01-1998,23:00,33,R,ugm-3 (GRAV EQ),75,R,ugm-3,48,R,ugm-3,162,R,ugm-3
06-01-1998,24:00,38,R,ugm-3 (GRAV EQ),46,R,ugm-3,38,R,ugm-3,109,R,ugm-3
07-01-1998,01:00,26,R,ugm-3 (GRAV EQ),14,R,ugm-3,25,R,ugm-3,46,R,ugm-3
07-01-1998,02:00,23,R,ugm-3 (GRAV EQ),15,R,ugm-3,32,R,ugm-3,55,R,ugm-3
07-01-1998,03:00,20,R,ugm-3 (GRAV EQ),9,R,ugm-3,21,R,ugm-3,34,R,ugm-3
07-01-1998,04:00,18,R,ugm-3 (GRAV EQ),9,R,ugm-3,23,R,ugm-3,36,R,ugm-3
07-01-1998,05:00,26,R,ugm-3 (GRAV EQ),11,R,ugm-3,29,R,ugm-3,46,R,ugm-3
07-01-1998,06:00,31,R,ugm-3 (GRAV EQ),21,R,ugm-3,34,R,ugm-3,67,R,ugm-3
07-01-1998,07:00,31,R,ugm-3 (GRAV EQ),40,R,ugm-3,48,R,ugm-3,109,R,ugm-3
07-01-1998,08:00,34,R,ugm-3 (GRAV EQ),93,R,ugm-3,67,R,ugm-3,208,R,ugm-3
07-01-1998,09:00,23,R,ugm-3 (GRAV EQ),106,R,ugm-3,67,R,ugm-3,229,R,ugm-3
07-01-1998,10:00,30,R,ugm-3 (GRAV EQ),104,R,ugm-3,65,R,ugm-3,223,R,ugm-3
07-01-1998,11:00,35,R,ugm-3 (GRAV EQ),106,R,ugm-3,63,R,ugm-3,225,R,ugm-3
07-01-1998,12:00,30,R,ugm-3 (GRAV EQ),49,R,ugm-3,48,R,ugm-3,122,R,ugm-3
07-01-1998,13:00,25,R,ugm-3 (GRAV EQ),50,R,ugm-3,44,R,ugm-3,120,R,ugm-3
07-01-1998,14:00,33,R,ugm-3 (GRAV EQ),46,R,ugm-3,44,R,ugm-3,115,R,ugm-3
07-01-1998,15:00,34,R,ugm-3 (GRAV EQ),58,R,ugm-3,50,R,ugm-3,138,R,ugm-3
07-01-1998,16:00,36,R,ugm-3 (GRAV EQ),86,R,ugm-3,65,R,ugm-3,197,R,ugm-3
07-01-1998,17:00,34,R,ugm-3 (GRAV EQ),83,R,ugm-3,65,R,ugm-3,191,R,ugm-3
07-01-1998,18:00,40,R,ugm-3 (GRAV EQ),134,R,ugm-3,74,R,ugm-3,279,R,ugm-3
07-01-1998,19:00,30,R,ugm-3 (GRAV EQ),49,R,ugm-3,57,R,ugm-3,132,R,ugm-3
07-01-1998,20:00,23,R,ugm-3 (GRAV EQ),90,R,ugm-3,73,R,ugm-3,210,R,ugm-3
07-01-1998,21:00,34,R,ugm-3 (GRAV EQ),128,R,ugm-3,74,R,ugm-3,269,R,ugm-3
07-01-1998,22:00,29,R,ugm-3 (GRAV EQ),63,R,ugm-3,59,R,ugm-3,155,R,ugm-3
07-01-1998,23:00,20,R,ugm-3 (GRAV EQ),40,R,ugm-3,55,R,ugm-3,117,R,ugm-3
07-01-1998,24:00,17,R,ugm-3 (GRAV EQ),45,R,ugm-3,53,R,ugm-3,122,R,ugm-3
08-01-1998,01:00,14,R,ugm-3 (GRAV EQ),29,R,ugm-3,48,R,ugm-3,92,R,ugm-3
08-01-1998,02:00,13,R,ugm-3 (GRAV EQ),13,R,ugm-3,36,R,ugm-3,55,R,ugm-3
08-01-1998,03:00,13,R,ugm-3 (GRAV EQ),3,R,ugm-3,27,R,ugm-3,31,R,ugm-3
08-01-1998,04:00,12,R,ugm-3 (GRAV EQ),4,R,ugm-3,23,R,ugm-3,29,R,ugm-3
08-01-1998,05:00,10,R,ugm-3 (GRAV EQ),10,R,ugm-3,32,R,ugm-3,48,R,ugm-3
08-01-1998,06:00,13,R,ugm-3 (GRAV EQ),29,R,ugm-3,42,R,ugm-3,86,R,ugm-3
08-01-1998,07:00,22,R,ugm-3 (GRAV EQ),66,R,ugm-3,65,R,ugm-3,166,R,ugm-3
08-01-1998,08:00,33,R,ugm-3 (GRAV EQ),118,R,ugm-3,74,R,ugm-3,254,R,ugm-3
08-01-1998,09:00,49,R,ugm-3 (GRAV EQ),111,R,ugm-3,67,R,ugm-3,237,R,ugm-3
08-01-1998,10:00,47,R,ugm-3 (GRAV EQ),89,R,ugm-3,57,R,ugm-3,193,R,ugm-3
08-01-1998,11:00,44,R,ugm-3 (GRAV EQ),85,R,ugm-3,55,R,ugm-3,185,R,ugm-3
08-01-1998,12:00,40,R,ugm-3 (GRAV EQ),65,R,ugm-3,50,R,ugm-3,149,R,ugm-3
08-01-1998,13:00,43,R,ugm-3 (GRAV EQ),55,R,ugm-3,48,R,ugm-3,132,R,ugm-3
08-01-1998,14:00,39,R,ugm-3 (GRAV EQ),50,R,ugm-3,46,R,ugm-3,122,R,ugm-3
08-01-1998,15:00,46,R,ugm-3 (GRAV EQ),53,R,ugm-3,52,R,ugm-3,132,R,ugm-3
08-01-1998,16:00,47,R,ugm-3 (GRAV EQ),74,R,ugm-3,55,R,ugm-3,168,R,ugm-3
08-01-1998,17:00,52,R,ugm-3 (GRAV EQ),80,R,ugm-3,59,R,ugm-3,181,R,ugm-3
08-01-1998,18:00,49,R,ugm-3 (GRAV EQ),71,R,ugm-3,55,R,ugm-3,164,R,ugm-3
08-01-1998,19:00,51,R,ugm-3 (GRAV EQ),69,R,ugm-3,55,R,ugm-3,160,R,ugm-3
08-01-1998,20:00,48,R,ugm-3 (GRAV EQ),61,R,ugm-3,53,R,ugm-3,147,R,ugm-3
08-01-1998,21:00,47,R,ugm-3 (GRAV EQ),50,R,ugm-3,50,R,ugm-3,126,R,ugm-3
08-01-1998,22:00,42,R,ugm-3 (GRAV EQ),35,R,ugm-3,42,R,ugm-3,96,R,ugm-3
08-01-1998,23:00,43,R,ugm-3 (GRAV EQ),48,R,ugm-3,42,R,ugm-3,115,R,ugm-3
08-01-1998,24:00,42,R,ugm-3 (GRAV EQ),43,R,ugm-3,42,R,ugm-3,107,R,ugm-3
09-01-1998,01:00,40,R,ugm-3 (GRAV EQ),24,R,ugm-3,32,R,ugm-3,69,R,ugm-3
09-01-1998,02:00,38,R,ugm-3 (GRAV EQ),15,R,ugm-3,25,R,ugm-3,48,R,ugm-3
09-01-1998,03:00,35,R,ugm-3 (GRAV EQ),8,R,ugm-3,15,R,ugm-3,27,R,ugm-3
09-01-1998,04:00,35,R,ugm-3 (GRAV EQ),8,R,ugm-3,19,R,ugm-3,31,R,ugm-3
09-01-1998,05:00,31,R,ugm-3 (GRAV EQ),5,R,ugm-3,19,R,ugm-3,27,R,ugm-3
09-01-1998,06:00,29,R,ugm-3 (GRAV EQ),11,R,ugm-3,25,R,ugm-3,42,R,ugm-3
09-01-1998,07:00,31,R,ugm-3 (GRAV EQ),39,R,ugm-3,42,R,ugm-3,101,R,ugm-3
09-01-1998,08:00,40,R,ugm-3 (GRAV EQ),86,R,ugm-3,57,R,ugm-3,189,R,ugm-3
09-01-1998,09:00,48,R,ugm-3 (GRAV EQ),124,R,ugm-3,61,R,ugm-3,250,R,ugm-3
09-01-1998,10:00,55,R,ugm-3 (GRAV EQ),115,R,ugm-3,59,R,ugm-3,235,R,ugm-3
09-01-1998,11:00,52,R,ugm-3 (GRAV EQ),100,R,ugm-3,57,R,ugm-3,210,R,ugm-3
09-01-1998,12:00,55,R,ugm-3 (GRAV EQ),98,R,ugm-3,53,R,ugm-3,202,R,ugm-3
09-01-1998,13:00,51,R,ugm-3 (GRAV EQ),111,R,ugm-3,55,R,ugm-3,225,R,ugm-3
09-01-1998,14:00,46,R,ugm-3 (GRAV EQ),115,R,ugm-3,55,R,ugm-3,231,R,ugm-3
09-01-1998,15:00,44,R,ugm-3 (GRAV EQ),93,R,ugm-3,50,R,ugm-3,191,R,ugm-3
09-01-1998,16:00,43,R,ugm-3 (GRAV EQ),146,R,ugm-3,59,R,ugm-3,283,R,ugm-3
09-01-1998,17:00,40,R,ugm-3 (GRAV EQ),178,R,ugm-3,67,R,ugm-3,338,R,ugm-3
09-01-1998,18:00,44,R,ugm-3 (GRAV EQ),165,R,ugm-3,61,R,ugm-3,313,R,ugm-3
09-01-1998,19:00,47,R,ugm-3 (GRAV EQ),173,R,ugm-3,55,R,ugm-3,319,R,ugm-3
09-01-1998,20:00,46,R,ugm-3 (GRAV EQ),168,R,ugm-3,53,R,ugm-3,309,R,ugm-3
09-01-1998,21:00,38,R,ugm-3 (GRAV EQ),145,R,ugm-3,57,R,ugm-3,279,R,ugm-3
09-01-1998,22:00,31,R,ugm-3 (GRAV EQ),108,R,ugm-3,53,R,ugm-3,218,R,ugm-3
09-01-1998,23:00,29,R,ugm-3 (GRAV EQ),85,R,ugm-3,52,R,ugm-3,181,R,ugm-3
09-01-1998,24:00,30,R,ugm-3 (GRAV EQ),89,R,ugm-3,52,R,ugm-3,187,R,ugm-3
10-01-1998,01:00,31,R,ugm-3 (GRAV EQ),71,R,ugm-3,48,R,ugm-3,157,R,ugm-3
10-01-1998,02:00,33,R,ugm-3 (GRAV EQ),80,R,ugm-3,48,R,ugm-3,170,R,ugm-3
10-01-1998,03:00,31,R,ugm-3 (GRAV EQ),61,R,ugm-3,42,R,ugm-3,136,R,ugm-3
10-01-1998,04:00,30,R,ugm-3 (GRAV EQ),45,R,ugm-3,44,R,ugm-3,113,R,ugm-3
10-01-1998,05:00,31,R,ugm-3 (GRAV EQ),28,R,ugm-3,38,R,ugm-3,80,R,ugm-3
10-01-1998,06:00,30,R,ugm-3 (GRAV EQ),34,R,ugm-3,38,R,ugm-3,90,R,ugm-3
10-01-1998,07:00,33,R,ugm-3 (GRAV EQ),83,R,ugm-3,48,R,ugm-3,174,R,ugm-3
10-01-1998,08:00,42,R,ugm-3 (GRAV EQ),141,R,ugm-3,52,R,ugm-3,267,R,ugm-3
10-01-1998,09:00,48,R,ugm-3 (GRAV EQ),194,R,ugm-3,46,R,ugm-3,342,R,ugm-3
10-01-1998,10:00,52,R,ugm-3 (GRAV EQ),256,R,ugm-3,48,R,ugm-3,439,R,ugm-3
10-01-1998,11:00,57,R,ugm-3 (GRAV EQ),219,R,ugm-3,52,R,ugm-3,386,R,ugm-3
10-01-1998,12:00,44,R,ugm-3 (GRAV EQ),148,R,ugm-3,42,R,ugm-3,267,R,ugm-3
10-01-1998,13:00,47,R,ugm-3 (GRAV EQ),166,R,ugm-3,44,R,ugm-3,298,R,ugm-3
10-01-1998,14:00,53,R,ugm-3 (GRAV EQ),175,R,ugm-3,48,R,ugm-3,315,R,ugm-3
10-01-1998,15:00,57,R,ugm-3 (GRAV EQ),185,R,ugm-3,50,R,ugm-3,332,R,ugm-3
10-01-1998,16:00,61,R,ugm-3 (GRAV EQ),263,R,ugm-3,52,R,ugm-3,453,R,ugm-3
10-01-1998,17:00,65,R,ugm-3 (GRAV EQ),291,R,ugm-3,53,R,ugm-3,499,R,ugm-3
10-01-1998,18:00,59,R,ugm-3 (GRAV EQ),258,R,ugm-3,46,R,ugm-3,439,R,ugm-3
10-01-1998,19:00,65,R,ugm-3 (GRAV EQ),314,R,ugm-3,40,R,ugm-3,520,R,ugm-3
10-01-1998,20:00,60,R,ugm-3 (GRAV EQ),250,R,ugm-3,34,R,ugm-3,416,R,ugm-3
10-01-1998,21:00,59,R,ugm-3 (GRAV EQ),221,R,ugm-3,38,R,ugm-3,376,R,ugm-3
10-01-1998,22:00,59,R,ugm-3 (GRAV EQ),258,R,ugm-3,38,R,ugm-3,432,R,ugm-3
10-01-1998,23:00,59,R,ugm-3 (GRAV EQ),229,R,ugm-3,34,R,ugm-3,384,R,ugm-3
10-01-1998,24:00,61,R,ugm-3 (GRAV EQ),275,R,ugm-3,36,R,ugm-3,456,R,ugm-3
11-01-1998,01:00,64,R,ugm-3 (GRAV EQ),288,R,ugm-3,31,R,ugm-3,470,R,ugm-3
11-01-1998,02:00,59,R,ugm-3 (GRAV EQ),210,R,ugm-3,31,R,ugm-3,351,R,ugm-3
11-01-1998,03:00,52,R,ugm-3 (GRAV EQ),164,R,ugm-3,32,R,ugm-3,283,R,ugm-3
11-01-1998,04:00,46,R,ugm-3 (GRAV EQ),145,R,ugm-3,32,R,ugm-3,254,R,ugm-3
11-01-1998,05:00,44,R,ugm-3 (GRAV EQ),139,R,ugm-3,34,R,ugm-3,246,R,ugm-3
11-01-1998,06:00,44,R,ugm-3 (GRAV EQ),131,R,ugm-3,32,R,ugm-3,233,R,ugm-3
11-01-1998,07:00,46,R,ugm-3 (GRAV EQ),153,R,ugm-3,32,R,ugm-3,265,R,ugm-3
11-01-1998,08:00,42,R,ugm-3 (GRAV EQ),155,R,ugm-3,42,R,ugm-3,279,R,ugm-3
11-01-1998,09:00,44,R,ugm-3 (GRAV EQ),181,R,ugm-3,46,R,ugm-3,323,R,ugm-3
11-01-1998,10:00,42,R,ugm-3 (GRAV EQ),159,R,ugm-3,40,R,ugm-3,283,R,ugm-3
11-01-1998,11:00,39,R,ugm-3 (GRAV EQ),123,R,ugm-3,40,R,ugm-3,227,R,ugm-3
11-01-1998,12:00,42,R,ugm-3 (GRAV EQ),166,R,ugm-3,38,R,ugm-3,292,R,ugm-3
11-01-1998,13:00,42,R,ugm-3 (GRAV EQ),136,R,ugm-3,40,R,ugm-3,248,R,ugm-3
11-01-1998,14:00,42,R,ugm-3 (GRAV EQ),119,R,ugm-3,36,R,ugm-3,218,R,ugm-3
11-01-1998,15:00,42,R,ugm-3 (GRAV EQ),181,R,ugm-3,40,R,ugm-3,317,R,ugm-3
11-01-1998,16:00,53,R,ugm-3 (GRAV EQ),235,R,ugm-3,42,R,ugm-3,401,R,ugm-3
11-01-1998,17:00,51,R,ugm-3 (GRAV EQ),213,R,ugm-3,40,R,ugm-3,365,R,ugm-3
11-01-1998,18:00,48,R,ugm-3 (GRAV EQ),181,R,ugm-3,42,R,ugm-3,319,R,ugm-3
11-01-1998,19:00,49,R,ugm-3 (GRAV EQ),211,R,ugm-3,40,R,ugm-3,363,R,ugm-3
11-01-1998,20:00,49,R,ugm-3 (GRAV EQ),199,R,ugm-3,40,R,ugm-3,344,R,ugm-3
11-01-1998,21:00,42,R,ugm-3 (GRAV EQ),123,R,ugm-3,40,R,ugm-3,227,R,ugm-3
11-01-1998,22:00,36,R,ugm-3 (GRAV EQ),84,R,ugm-3,40,R,ugm-3,168,R,ugm-3
11-01-1998,23:00,33,R,ugm-3 (GRAV EQ),106,R,ugm-3,42,R,ugm-3,204,R,ugm-3
11-01-1998,24:00,33,R,ugm-3 (GRAV EQ),60,R,ugm-3,38,R,ugm-3,130,R,ugm-3
12-01-1998,01:00,33,R,ugm-3 (GRAV EQ),36,R,ugm-3,36,R,ugm-3,92,R,ugm-3
12-01-1998,02:00,31,R,ugm-3 (GRAV EQ),23,R,ugm-3,29,R,ugm-3,63,R,ugm-3
12-01-1998,03:00,34,R,ugm-3 (GRAV EQ),11,R,ugm-3,17,R,ugm-3,34,R,ugm-3
12-01-1998,04:00,35,R,ugm-3 (GRAV EQ),13,R,ugm-3,25,R,ugm-3,44,R,ugm-3
12-01-1998,05:00,40,R,ugm-3 (GRAV EQ),20,R,ugm-3,32,R,ugm-3,63,R,ugm-3
12-01-1998,06:00,39,R,ugm-3 (GRAV EQ),28,R,ugm-3,34,R,ugm-3,76,R,ugm-3
12-01-1998,07:00,44,R,ugm-3 (GRAV EQ),83,R,ugm-3,46,R,ugm-3,172,R,ugm-3
12-01-1998,08:00,49,R,ugm-3 (GRAV EQ),153,R,ugm-3,50,R,ugm-3,283,R,ugm-3
12-01-1998,09:00,60,R,ugm-3 (GRAV EQ),259,R,ugm-3,48,R,ugm-3,443,R,ugm-3
12-01-1998,10:00,60,R,ugm-3 (GRAV EQ),229,R,ugm-3,52,R,ugm-3,401,R,ugm-3
12-01-1998,11:00,53,R,ugm-3 (GRAV EQ),196,R,ugm-3,46,R,ugm-3,346,R,ugm-3
12-01-1998,12:00,56,R,ugm-3 (GRAV EQ),199,R,ugm-3,46,R,ugm-3,350,R,ugm-3
12-01-1998,13:00,55,R,ugm-3 (GRAV EQ),168,R,ugm-3,44,R,ugm-3,300,R,ugm-3
12-01-1998,14:00,60,R,ugm-3 (GRAV EQ),191,R,ugm-3,48,R,ugm-3,340,R,ugm-3
12-01-1998,15:00,57,R,ugm-3 (GRAV EQ),171,R,ugm-3,46,R,ugm-3,308,R,ugm-3
12-01-1998,16:00,56,R,ugm-3 (GRAV EQ),194,R,ugm-3,48,R,ugm-3,344,R,ugm-3
12-01-1998,17:00,55,R,ugm-3 (GRAV EQ),175,R,ugm-3,48,R,ugm-3,315,R,ugm-3
12-01-1998,18:00,56,R,ugm-3 (GRAV EQ),221,R,ugm-3,46,R,ugm-3,384,R,ugm-3
12-01-1998,19:00,53,R,ugm-3 (GRAV EQ),215,R,ugm-3,46,R,ugm-3,374,R,ugm-3
12-01-1998,20:00,59,R,ugm-3 (GRAV EQ),234,R,ugm-3,44,R,ugm-3,401,R,ugm-3
12-01-1998,21:00,52,R,ugm-3 (GRAV EQ),193,R,ugm-3,40,R,ugm-3,334,R,ugm-3
12-01-1998,22:00,48,R,ugm-3 (GRAV EQ),153,R,ugm-3,36,R,ugm-3,269,R,ugm-3
12-01-1998,23:00,48,R,ugm-3 (GRAV EQ),146,R,ugm-3,40,R,ugm-3,264,R,ugm-3
12-01-1998,24:00,46,R,ugm-3 (GRAV EQ),104,R,ugm-3,34,R,ugm-3,193,R,ugm-3
13-01-1998,01:00,40,R,ugm-3 (GRAV EQ),75,R,ugm-3,36,R,ugm-3,151,R,ugm-3
13-01-1998,02:00,36,R,ugm-3 (GRAV EQ),55,R,ugm-3,36,R,ugm-3,120,R,ugm-3
13-01-1998,03:00,33,R,ugm-3 (GRAV EQ),29,R,ugm-3,36,R,ugm-3,80,R,ugm-3
13-01-1998,04:00,33,R,ugm-3 (GRAV EQ),18,R,ugm-3,32,R,ugm-3,59,R,ugm-3
13-01-1998,05:00,30,R,ugm-3 (GRAV EQ),18,R,ugm-3,40,R,ugm-3,67,R,ugm-3
13-01-1998,06:00,31,R,ugm-3 (GRAV EQ),24,R,ugm-3,40,R,ugm-3,76,R,ugm-3
13-01-1998,07:00,36,R,ugm-3 (GRAV EQ),113,R,ugm-3,44,R,ugm-3,216,R,ugm-3
13-01-1998,08:00,49,R,ugm-3 (GRAV EQ),194,R,ugm-3,52,R,ugm-3,348,R,ugm-3
13-01-1998,09:00,57,R,ugm-3 (GRAV EQ),213,R,ugm-3,46,R,ugm-3,371,R,ugm-3
13-01-1998,10:00,61,R,ugm-3 (GRAV EQ),216,R,ugm-3,48,R,ugm-3,378,R,ugm-3
13-01-1998,11:00,51,R,ugm-3 (GRAV EQ),185,R,ugm-3,46,R,ugm-3,329,R,ugm-3
13-01-1998,12:00,48,R,ugm-3 (GRAV EQ),179,R,ugm-3,46,R,ugm-3,319,R,ugm-3
13-01-1998,13:00,48,R,ugm-3 (GRAV EQ),203,R,ugm-3,48,R,ugm-3,357,R,ugm-3
13-01-1998,14:00,53,R,ugm-3 (GRAV EQ),193,R,ugm-3,48,R,ugm-3,342,R,ugm-3
13-01-1998,15:00,57,R,ugm-3 (GRAV EQ),208,R,ugm-3,48,R,ugm-3,365,R,ugm-3
13-01-1998,16:00,57,R,ugm-3 (GRAV EQ),191,R,ugm-3,52,R,ugm-3,344,R,ugm-3
13-01-1998,17:00,56,R,ugm-3 (GRAV EQ),185,R,ugm-3,55,R,ugm-3,338,R,ugm-3
13-01-1998,18:00,55,R,ugm-3 (GRAV EQ),168,R,ugm-3,53,R,ugm-3,309,R,ugm-3
13-01-1998,19:00,48,R,ugm-3 (GRAV EQ),155,R,ugm-3,52,R,ugm-3,288,R,ugm-3
13-01-1998,20:00,43,R,ugm-3 (GRAV EQ),124,R,ugm-3,44,R,ugm-3,233,R,ugm-3
13-01-1998,21:00,22,R,ugm-3 (GRAV EQ),68,R,ugm-3,34,R,ugm-3,138,R,ugm-3
13-01-1998,22:00,22,R,ugm-3 (GRAV EQ),63,R,ugm-3,36,R,ugm-3,132,R,ugm-3
13-01-1998,23:00,20,R,ugm-3 (GRAV EQ),68,R,ugm-3,40,R,ugm-3,143,R,ugm-3
13-01-1998,24:00,17,R,ugm-3 (GRAV EQ),60,R,ugm-3,40,R,ugm-3,132,R,ugm-3
14-01-1998,01:00,14,R,ugm-3 (GRAV EQ),43,R,ugm-3,36,R,ugm-3,101,R,ugm-3
14-01-1998,02:00,10,R,ugm-3 (GRAV EQ),25,R,ugm-3,34,R,ugm-3,73,R,ugm-3
14-01-1998,03:00,12,R,ugm-3 (GRAV EQ),21,R,ugm-3,44,R,ugm-3,76,R,ugm-3
14-01-1998,04:00,9,R,ugm-3 (GRAV EQ),3,R,ugm-3,23,R,ugm-3,27,R,ugm-3
14-01-1998,05:00,8,R,ugm-3 (GRAV EQ),3,R,ugm-3,19,R,ugm-3,23,R,ugm-3
14-01-1998,06:00,9,R,ugm-3 (GRAV EQ),4,R,ugm-3,21,R,ugm-3,27,R,ugm-3
14-01-1998,07:00,7,R,ugm-3 (GRAV EQ),10,R,ugm-3,19,R,ugm-3,34,R,ugm-3
14-01-1998,08:00,13,R,ugm-3 (GRAV EQ),18,R,ugm-3,34,R,ugm-3,61,R,ugm-3
14-01-1998,09:00,13,R,ugm-3 (GRAV EQ),31,R,ugm-3,44,R,ugm-3,92,R,ugm-3
14-01-1998,10:00,20,R,ugm-3 (GRAV EQ),39,R,ugm-3,48,R,ugm-3,107,R,ugm-3
14-01-1998,11:00,22,R,ugm-3 (GRAV EQ),38,R,ugm-3,46,R,ugm-3,103,R,ugm-3
14-01-1998,12:00,21,R,ugm-3 (GRAV EQ),28,R,ugm-3,34,R,ugm-3,76,R,ugm-3
14-01-1998,13:00,17,R,ugm-3 (GRAV EQ),29,R,ugm-3,34,R,ugm-3,78,R,ugm-3
14-01-1998,14:00,20,R,ugm-3 (GRAV EQ),24,R,ugm-3,32,R,ugm-3,69,R,ugm-3
14-01-1998,15:00,25,R,ugm-3 (GRAV EQ),29,R,ugm-3,38,R,ugm-3,82,R,ugm-3
14-01-1998,16:00,25,R,ugm-3 (GRAV EQ),36,R,ugm-3,48,R,ugm-3,103,R,ugm-3
14-01-1998,17:00,30,R,ugm-3 (GRAV EQ),,,,,,,,,
14-01-1998,18:00,,,,,,,,,,,,